Location: São Paulo
(23.5507°S, 46.6334°W)
Time: 07:09:04
(UTC-03:00)

Explorer 7 - Pass Details

Date: 23 February 2026
Orbit: 430 x 541 km, 50.2° (Epoch: 10 March)

Event Time Altitude Azimuth Distance (km) Brightness Sun altitude
Rises 22:53:10 0° 324° (NW) 2,677 - -50.7°
Reaches altitude 10° 22:55:23 10° 326° (NW) 1,799 - -51.0°
Maximum altitude 22:59:29 71° 49° (NE) 581 - -51.6°
Drops below altitude 10° 23:03:37 10° 133° (SE) 1,817 - -52.1°
Sets 23:05:52 0° 135° (SE) 2,708 - -52.3°
